Weather History for Casablanca, Morocco

Change the Weather History Date:

Sunday, November 3, 2013

  Actual Average (GMMN) Record (GMMN)
Temperature  
Mean Temperature 64 °F -  
Max Temperature 74 °F 68 °F 86 °F (1996)
Min Temperature 55 °F 49 °F 43 °F (2013)
Growing Degree Days 14 (Base 50)    
Moisture  
Dew Point 58 °F    
Average Humidity 77    
Maximum Humidity 94    
Minimum Humidity 49    
Precipitation  
Precipitation 0.00 in 0.10 in - ()
Sea Level Pressure  
Sea Level Pressure 30.09 in    
Wind  
Wind Speed 3 mph ()    
Max Wind Speed 9 mph    
Max Gust Speed -    
Visibility 6.5 miles    
Events      
Averages and records for this station are not official NWS values.
T = Trace of Precipitation, MM = Missing Value Source: Averaged Metar Reports

Daily Weather History Graph

Daily Weather History Graph

Search for Another Location

Airport:

Trip Planner

Search our weather history database for the weather conditions in past years. The results will help you decide how hot, cold, wet, or windy it might be!

Date:

Astronomy

Nov. 03, 2013 Rise Set
Actual Time 6:51 AM WET 5:36 PM WET
Civil Twilight 6:25 AM WET 6:02 PM WET
Nautical Twilight 5:56 AM WET 6:31 PM WET
Astronomical Twilight 5:26 AM WET 7:01 PM WET
Moon 6:39 AM WET (11/3) 5:42 PM WET (11/3)
Length of Visible Light 11h 36m
Length of Day
10h 45m
Waning Crescent, 0% of the Moon is Illuminated
Nov 3
Waning Crescent
Nov 3
New
Nov 10
First Quarter
Nov 17
Full
Nov 25
Last Quarter

Hourly Weather History & Observations

Time (WET) Temp. Dew Point Humidity Pressure Visibility Wind Dir Wind Speed Gust Speed Precip Events Conditions
12:00 AM 62 °F 58 °F 81% 30.08 in 9 mi North 3.5 mph - -  
12:00 AM 62.6 °F 57.2 °F 82% 30.04 in - North 3.5 mph - N/A   Clear
1:00 AM 59.0 °F 55.4 °F 88% 30.04 in - Calm Calm - N/A   Clear
2:00 AM 59.0 °F 55.4 °F 88% 30.04 in - North 2.3 mph - N/A   Clear
3:00 AM 58 °F 54 °F 84% 30.08 in 6 mi South 2.3 mph - -  
3:00 AM 59.0 °F 55.4 °F 88% 30.04 in - South 2.3 mph - N/A   Clear
4:00 AM 57.2 °F 55.4 °F 94% 30.04 in - Calm Calm - N/A   Clear
5:00 AM 57.2 °F 53.6 °F 88% 30.04 in - South 2.3 mph - N/A   Clear
6:00 AM 57 °F 52 °F 76% 30.09 in 6 mi South 2.3 mph - -  
6:00 AM 57.2 °F 51.8 °F 82% 30.04 in - South 2.3 mph - N/A   Clear
7:00 AM 57.2 °F 51.8 °F 82% 30.04 in - South 2.3 mph - N/A   Clear
8:00 AM 60.8 °F 55.4 °F 82% 30.09 in 3.7 mi Calm Calm - N/A   Unknown
9:00 AM 63 °F 60 °F 86% 30.14 in 4 mi Calm Calm - -   Clear
9:00 AM 62.6 °F 60.8 °F 94% 30.09 in 3.7 mi Calm Calm - N/A   Unknown
10:00 AM 69.8 °F 60.8 °F 73% 30.09 in - East 6.9 mph - N/A   Clear
11:00 AM 71.6 °F 59.0 °F 64% 30.09 in 3.7 mi ENE 5.8 mph - N/A   Unknown
12:00 PM 73 °F 58 °F 50% 30.13 in 4 mi ENE 8.1 mph - -   Clear
12:00 PM 73.4 °F 59.0 °F 61% 30.09 in 3.7 mi ENE 8.1 mph - N/A   Unknown
1:00 PM 73.4 °F 57.2 °F 57% 30.09 in - NE 9.2 mph - N/A   Clear
2:00 PM 73.4 °F 59.0 °F 61% 30.06 in - NNE 6.9 mph - N/A   Clear
3:00 PM 72 °F 57 °F 49% 30.11 in 12 mi NNE 8.1 mph - -   Scattered Clouds
3:00 PM 71.6 °F 57.2 °F 60% 30.06 in - NNE 8.1 mph - N/A   Clear
4:00 PM 71.6 °F 59.0 °F 64% 30.09 in - North 6.9 mph - N/A   Clear
5:00 PM 69.8 °F 57.2 °F 64% 30.09 in - North 6.9 mph - N/A   Clear
6:00 PM 68 °F 63 °F 79% 30.14 in 12 mi NNE 3.5 mph - -   Partly Cloudy
6:00 PM 68.0 °F 62.6 °F 83% 30.09 in - NNE 3.5 mph - N/A   Clear
7:00 PM 68.0 °F 62.6 °F 83% 30.12 in 6.2 mi North 2.3 mph - N/A   Mostly Cloudy
8:00 PM 68.0 °F 62.6 °F 83% 30.15 in 6.2 mi North 3.5 mph - N/A   Scattered Clouds
9:00 PM 67 °F 63 °F 81% 30.21 in 12 mi NNW 2.3 mph - -   Partly Cloudy
9:00 PM 68.0 °F 62.6 °F 83% 30.18 in 6.2 mi NNW 2.3 mph - N/A   Scattered Clouds
10:00 PM 66.2 °F 62.6 °F 88% 30.18 in 6.2 mi Calm Calm - N/A   Partly Cloudy
11:00 PM 66.2 °F 62.6 °F 88% 30.18 in 6.2 mi NW 2.3 mph - N/A   Partly Cloudy